Flag for U.S.A. Weather past 2 weeks in Miami, Florida, U.S.A.

Now
79 °F

Passing clouds.


Feels Like: 81 °F
Forecast: 78 / 85 °F
Wind: 16 mph from East

Location: Miami International Airport

Current Time: May 27, 2015 at 6:47:39 AM

Latest Report: May 27, 2015 at 5:53 AM


Visibility: 10 mi

Pressure: 30.09 "Hg

Humidity: 67%

Dew point: 67 °F

Location of MiamiLocation

Historic Weather in Miami — Graph

°F

Miami temperature yesterday

Maximum temperature yesterday: 88 °F (at 1:53 PM)
Minimum temperature yesterday: 80 °F (at 5:53 AM)
Average temperature yesterday: 83 °F

Past Weeks' High & Low Weather Summary

 TemperatureHumidityPressure
High92 °F (May 21, 1:53 PM)88% (May 20, 6:53 AM)30.20 "Hg (May 20, 6:53 AM)
Low74 °F (May 20, 6:53 AM)39% (May 20, 2:53 PM)29.94 "Hg (May 21, 4:53 PM)
Average82 °F66%30.10 "Hg
* Reported May 12 5:53 AM — May 27 5:53 AM, Miami, Weather by CustomWeather, © 2015

Note: Actual official high and low records may vary slightly from our data, if they occured in-between our weather recording intervals... More about our weather records

Advertising

Miami weather history for previous 24 hours

 ConditionsComfort  
Time TempWeatherWind HumidityBarometerVisibility
5:53 AM
Wed, May 27
79 °FPassing clouds.16 mph67%30.09 "Hg10 mi
4:53 AM79 °FPassing clouds.14 mph67%30.09 "Hg10 mi
3:53 AM80 °FPassing clouds.10 mph62%30.11 "Hg10 mi
2:53 AM80 °FPassing clouds.9 mph64%30.12 "Hg10 mi
1:53 AM80 °FPassing clouds.9 mph62%30.14 "Hg10 mi
12:53 AM80 °FPassing clouds.9 mph67%30.16 "Hg10 mi
12:00 AM80 °FPartly cloudy.12 mph67%30.16 "Hg10 mi
10:53 PM
Tue, May 26
81 °FPassing clouds.13 mph67%30.15 "Hg10 mi
9:53 PM80 °FPassing clouds.12 mph69%30.14 "Hg10 mi
8:53 PM81 °FScattered clouds.13 mph67%30.11 "Hg10 mi
7:53 PM82 °FScattered clouds.12 mph67%30.11 "Hg10 mi
6:53 PM83 °FScattered clouds.15 mph65%30.11 "Hg10 mi
5:53 PM84 °FScattered clouds.13 mph61%30.12 "Hg10 mi
5:03 PM86 °FPartly sunny.15 mph55%30.12 "Hg10 mi
3:53 PM85 °FBroken clouds.16 mph63%30.14 "Hg10 mi
2:53 PM85 °FPartly sunny.16 mph63%30.15 "Hg10 mi
1:53 PM88 °FPartly sunny.16 mph55%30.16 "Hg10 mi
12:53 PM86 °FPartly sunny.15 mph59%30.17 "Hg10 mi
11:53 AM86 °FPartly sunny.18 mph59%30.18 "Hg10 mi
10:53 AM87 °FPartly sunny.17 mph57%30.19 "Hg10 mi
9:53 AM84 °FPartly sunny.17 mph63%30.18 "Hg10 mi
8:53 AM84 °FBroken clouds.20 mph61%30.18 "Hg10 mi
7:53 AM82 °FPartly sunny.14 mph67%30.16 "Hg10 mi
6:53 AM80 °FPartly cloudy.13 mph74%30.15 "Hg10 mi
Weather by CustomWeather, © 2015

See weather overviewHow to use our weather pages